ROMMA est une association bénévole à but non lucratif. Votre soutien est indispensable : ADHERER à ROMMA ou FAIRE un DON

Chambon - (38, Isère)

Oisans (2460 m)   Longitude: 06° 10' 42" E   Latitude: 45° 01' 32" N Station partenaire n°803
 

Détail journalier du     <<     >>

Température Humidité Vent Dir Rafale Dir. rafale Neige 1 Neige 2
Heure (°C) (%) (km/h) (km/h) (cm) (cm)
01:00 -6.7985SSO17OSO051
02:00 -7.0976OSO20NO052
03:00 -7.0976ONO16ONO051
04:00 -7.4976SO26SO051
05:00 -7.1967SSE33SSE051
06:00 -6.39416SSE46SSO051
07:00 -5.69225SSO53SSO051
08:00 -3.49721SSO52SSO050
09:00 -3.69824SSO54SSO051
10:00 -3.39630SSO54SSO052
11:00 -3.09627SSO46SSO053
12:00 -3.59824SO38OSO053
13:00 -3.79525SO40OSO052
14:00 -4.19815SO29SO051
15:00 -4.3986NE17OSO051
16:00 -4.6983NE34O055
17:00 -4.9995N23N056
18:00 -5.1999OSO16OSO062
19:00 -5.1996NNE18O064
20:00 -5.1994NE13SO067
21:00 -5.1994NE11O070
22:00 -5.4995O13O074
23:00 -5.6994ENE9ENE073
minuit -5.8984NE10ONO073

Graphique du 07-11-2019

 

Serveur OMMA